Location: Alfortville
(48.8058°N, 2.4204°E)
Time: 03:06:27
(UTC+00:00)

Envisat - Pass Details

Date: 04 December 2022
Orbit: 763 x 765 km, 98.2° (Epoch: 28 January)

Event Time Altitude Azimuth Distance (km) Brightness Sun altitude
Rises 16:41:23 0° 219° (SW) 3,222 7.6 -7.5°
Reaches altitude 10° 16:45:01 10° 246° (WSW) 2,303 7.3 -8.0°
Maximum altitude 16:47:22 13° 274° (W) 2,091 6.3 -8.4°
Drops below altitude 10° 16:49:44 10° 302° (WNW) 2,311 6.0 -8.7°
Sets 16:53:24 0° 329° (NNW) 3,245 6.3 -9.3°
